Location: Oshawa
(43.9000°N, 78.8670°W)
Time: 19:30:48
(UTC-04:00)

S-56A Canister/Altair - All Passes

Search period start: 31 October 2014 00:00
Search period end: 09 November 2014 23:00
Orbit: 632 x 2503 km, 38.9° (Epoch: 29 October)

Date Brightness Start Highest point End Pass type
(mag) Time Alt. Az. Time Alt. Az. Time Alt. Az.
31 Oct - 01:26:15 10° W 01:35:22 24° SW 01:42:29 10° S visible
31 Oct - 16:30:10 10° SSW 16:41:18 32° SE 16:53:31 10° E daylight
31 Oct - 18:32:20 10° SW 18:46:23 59° SSE 19:00:28 10° E visible
31 Oct - 20:37:43 10° W 20:52:51 73° S 21:05:51 10° E visible
31 Oct - 22:44:33 10° W 22:58:56 59° SSW 23:09:51 10° SE visible
01 Nov - 00:52:36 10° W 01:03:00 28° SW 01:11:03 10° S visible
01 Nov - 15:58:19 10° S 16:08:35 28° SE 16:20:08 10° E daylight
01 Nov - 17:59:46 10° SW 18:13:21 56° SSE 18:27:35 10° E daylight
01 Nov - 20:04:44 10° WSW 20:19:44 72° S 20:33:17 10° E visible
01 Nov - 22:11:20 10° W 22:26:03 62° SSW 22:37:39 10° ESE visible
02 Nov - 00:19:03 10° W 00:30:33 32° SW 00:39:26 10° SSE visible
02 Nov - 14:26:38 10° S 14:35:58 24° SE 14:46:36 10° E daylight
02 Nov - 16:27:20 10° SW 16:40:21 53° SSE 16:54:38 10° E daylight
02 Nov - 18:31:51 10° WSW 18:46:36 72° S 19:00:37 10° E visible
02 Nov - 20:38:10 10° W 20:53:06 65° SSW 21:05:21 10° ESE visible
02 Nov - 22:45:35 10° W 22:58:01 37° SW 23:07:41 10° SSE visible
03 Nov - 13:55:11 10° S 14:03:25 21° SE 14:12:51 10° E daylight
03 Nov - 15:55:01 10° SW 16:07:24 50° SSE 16:21:34 10° E daylight
03 Nov - 17:59:04 10° WSW 18:13:27 71° S 18:27:52 10° E visible
03 Nov - 20:05:04 10° W 20:20:05 67° SSW 20:32:57 10° ESE visible
03 Nov - 22:12:12 10° W 22:25:23 41° SW 22:35:48 10° SSE visible
04 Nov - 00:23:27 10° W 00:28:20 13° WSW 00:32:43 10° SSW visible
04 Nov - 13:24:02 10° SSE 13:30:57 17° SE 13:38:50 10° E daylight
04 Nov - 15:22:49 10° SW 15:34:32 46° SSE 15:48:25 10° E daylight
04 Nov - 17:26:22 10° WSW 17:40:19 69° S 17:55:02 10° E visible
04 Nov - 19:32:04 10° W 19:47:00 69° SSW 20:00:27 10° ESE visible
04 Nov - 21:38:54 10° W 21:52:39 45° SSW 22:03:47 10° SSE visible
04 Nov - 23:48:46 10° W 23:56:00 17° SW 00:02:18 10° SSW visible
05 Nov - 12:53:23 10° SSE 12:58:34 14° SE 13:04:20 10° E daylight
05 Nov - 14:50:44 10° SSW 15:01:44 42° SE 15:15:11 10° E daylight
05 Nov - 16:53:47 10° WSW 17:07:12 68° SSE 17:22:06 10° E daylight
05 Nov - 18:59:08 10° W 19:13:53 71° S 19:27:51 10° ESE visible
05 Nov - 21:05:41 10° W 21:19:49 49° SSW 21:31:40 10° SE visible
05 Nov - 23:14:38 10° W 23:23:36 20° SW 23:31:16 10° S visible
06 Nov - 12:24:15 10° SE 12:26:16 11° ESE 12:28:22 10° ESE daylight
06 Nov - 14:18:46 10° SSW 14:29:02 38° SE 14:41:51 10° E daylight
06 Nov - 16:21:18 10° WSW 16:34:09 65° SSE 16:49:05 10° E daylight
06 Nov - 18:26:18 10° W 18:40:44 72° S 18:55:09 10° ESE visible
06 Nov - 20:32:33 10° W 20:46:55 53° SSW 20:59:25 10° SE visible
06 Nov - 22:40:49 10° W 22:51:07 24° SW 22:59:55 10° S visible
07 Nov - 13:46:57 10° SSW 13:56:25 34° SE 14:08:26 10° E daylight
07 Nov - 15:48:55 10° WSW 16:01:08 63° SSE 16:15:59 10° E daylight
07 Nov - 17:53:33 10° W 18:07:35 73° S 18:22:21 10° ESE visible
07 Nov - 19:59:30 10° W 20:13:57 56° SSW 20:27:04 10° SE visible
07 Nov - 22:07:12 10° W 22:18:32 27° SW 22:28:20 10° S visible
08 Nov - 13:15:16 10° S 13:23:54 29° SE 13:34:55 10° E daylight
08 Nov - 15:16:38 10° SW 15:28:12 59° SSE 15:42:49 10° E daylight
08 Nov - 17:20:53 10° W 17:34:26 73° S 17:49:27 10° E visible
08 Nov - 19:26:33 10° W 19:40:56 59° SSW 19:54:35 10° SE visible
08 Nov - 21:33:45 10° W 21:45:53 31° SW 21:56:33 10° SSE visible
09 Nov - 12:43:44 10° S 12:51:29 25° SE 13:01:17 10° E daylight
09 Nov - 14:44:28 10° SW 14:55:21 56° SSE 15:09:35 10° E daylight
09 Nov - 16:48:20 10° WSW 17:01:19 72° S 17:16:28 10° E daylight
09 Nov - 18:53:41 10° W 19:07:52 62° SSW 19:22:00 10° SE visible
09 Nov - 21:00:26 10° W 21:13:09 35° SW 21:24:36 10° SSE visible
